Location: Axtheid
(49.6213°N, 11.8205°E)
Time: 20:51:01
(UTC+00:00)

Meteor 2-5 Rocket - Pass Details

Date: 24 January 2021
Orbit: 833 x 911 km, 81.2° (Epoch: 02 March)

Event Time Altitude Azimuth Distance (km) Brightness Sun altitude
Rises 16:44:39 0° 202° (SSW) 3,387 7.5 -8.1°
Reaches altitude 10° 16:47:06 10° 206° (SSW) 2,450 6.8 -8.5°
Maximum altitude 16:52:34 59° 286° (WNW) 965 4.3 -9.3°
Drops below altitude 10° 16:58:02 10° 6° (N) 2,457 5.9 -10.2°
Sets 17:00:30 0° 10° (N) 3,398 6.6 -10.6°
